Showing default

QIANFAN-34, 61567

Orbit data source: Space-Track

QIANFAN-34, 61567 is a Chinese payload satellite in LEO that was launched on Tue, 15 Oct 2024 UTC via a CHANG ZHENG 6A launch vehicle from the Taiyaun Space Center, China (TSC). Payload-class satellites include a variety of spacecraft equipped with specific instruments for various scientific and technological missions. These include communications satellites like Starlink; space stations such as the ISS; scientific satellites like the Hubble; Earth observation satellites from companies like Planet Labs, Umbra, and HawkEye 360; GPS; miniature CubeSats for education and research; and military/defense satellites.

Loading next visibility...
Identifier
61567, 2024-185R
Orbit
LEO
Country
Flag of CNCN / PRC
Related business
Manufacturer
GESIH/SECM
Mission
Operational Commercial Communications
Bus & Motor
QIANFAN, Unknown motor
Mass
267 kg wet, ~267 kg dry
Launch date (UTC)
2024-10-15 (2 years ago)
Launch vehicle
CHANG ZHENG 6A
Launch site
Taiyaun Space Center, China (TSC)
Object type
Payload
Rocket body
Debris
Shape & HBR
Box + 1 Pan, 5.0 m
Radar Cross Section
13.200 m², Large (>1 m²)

Expand to show TLE details & history
Last TLE update: 10 hours ago

TLE from 10 hours ago
0 QIANFAN-34
1 61567U 24185R   26123.93150406  .00000361  00000-0  22594-3 0  9992
2 61567  88.9796  62.3080 0003918 233.6034 126.4785 14.02435478 89283
Epoch: 2026-05-03T22:21Z
TLE epoch observation values (Epoch: 2026-05-03T22:21:21.950Z)
Latitude
-0.00006°
Longitude
-134.86143°
Altitude
890.094 km
Speed
7.406 km/s
True Right ascension
04h 09m 13s
True Declination
0° 00' 00"
Sunlit
Object was in daylight at epoch
Visualization orbit readout
Latitude
Unknown
Longitude
Unknown
Altitude
Unknown
Speed
Unknown
Apparent Right ascension
Unknown
Apparent Declination
Unknown
Sunlit
N/A
Visualization observer readout
Local Sidereal Time
16:39:38
Azimuth
Unknown
Elevation
Unknown
Doppler factor
Unknown
Orbital elements
Apogee altitude
885.195 km
Perigee altitude
879.506 km
Semi-major axis
7,260.487 km
Eccentricity
0.00039
Inclination
88.9796°
RAAN
62.308°
Arg. of periapsis
233.6034°
True anomaly
126.51459°
Mean anomaly
126.4785°
Eccentric anomaly
126.49655°
Mean motion
3.50828 °/min
Orbital period
102.61 mins
BSTAR
0.00022594
Loading maneuver chart data...
Computing Atmospheric mass density...
Loading historical data...
Loading historical data...
Loading historical data...
Loading historical data...
Loading historical data...
Loading historical data...
Loading historical data...

Documentation

Showing up to 5 results
|